Regional Weather Roundup
Issued by NWS

Home | Current Version | Previous Version | Text Only | Print | Product List | Glossary Off
Versions: 1 2 3 4 5 6 7 8 9 10 11 12 13 14 15 16 17 18 19 20 21 22 23 24 25 26 27 28 29 30 31 32 33 34 35 36 37 38 39 40 41 42 43 44 45 46 47 48 49 50

000
ASUS43 KIND 161309
RWRIN

WEATHER ROUNDUP FOR INDIANA
NATIONAL WEATHER SERVICE INDIANAPOLIS IN
800 AM EST SAT DEC 16 2017

NOTE: "FAIR" INDICATES FEW OR NO CLOUDS BELOW 12,000 FEET WITH NO
SIGNIFICANT WEATHER AND/OR OBSTRUCTIONS TO VISIBILITY.

* - STATION DOES NOT REPORT WEATHER SUCH AS PRECIPITATION OR FOG.

+ - STATION NOT QUALITY CONTROLLED BY THE NATIONAL WEATHER SERVICE.
    USE DATA WITH CAUTION...ESPECIALLY DEWPOINT AND RELATIVE
    HUMIDITY OBSERVATIONS.

INZ001>003-010>013-019-020-161400-
NORTHWEST INDIANA

CITY           SKY/WX    TMP DP  RH WIND       PRES   REMARKS
GARY /AIRPORT/ MOCLDY    36  23  60 SW14      29.90R WCI  27
KNOX *+        CLOUDY    34  27  75 SW9       29.91R WCI  26
LA PORTE +     PTCLDY    33  26  73 SW10G16   29.90R WCI  25
MICHIGAN CITY+ CLOUDY    36  27  69 SW12      29.89R WCI  27
MONTICELLO +   CLEAR     32  23  70 SW10      29.93R WCI  24
RENSSELAER +   CLOUDY    34  21  60 SW14      29.92R WCI  24
VALPARAISO     CLOUDY    33  25  72 SW7       29.90R WCI  27

$$

LMZ046-743>745-161400-
SOUTHERN LAKE MICHIGAN

STATION/POSITION TIME  TEMP    WIND        PRES    WAVE
                       AIR SEA DIR/SP/G            HT
                 (UTC) (F)     (DEG/KT/KT) (MB)    (FT)
BURNS HARBOR     1240   36     210/ 11/ 16 1012.2R
MICHIGAN CITY    1240   36     190/ 12/ 17   N/A

$$

INZ004-005-014>016-021>024-161400-
NORTH CENTRAL INDIANA

CITY           SKY/WX    TMP DP  RH WIND       PRES   REMARKS
ELKHART        CLEAR     34  25  69 SW7       29.90  WCI  28
GOSHEN         CLOUDY    34  25  69 SW14      29.91R WCI  25
LOGANSPORT +   CLOUDY    32  25  74 SW13G18   29.94R WCI  22
PERU/GRISSOM   CLOUDY    32  25  74 SW14      29.92S WCI  22
ROCHESTER +    CLOUDY    36  28  75 SW7       29.93R WCI  30
SOUTH BEND     CLOUDY    34  26  72 SW14      29.89S WCI  25
WARSAW +       CLOUDY    34  27  75 SW7       29.91R WCI  28

$$

INZ006>009-017-018-025>027-161400-
NORTHEAST INDIANA

CITY           SKY/WX    TMP DP  RH WIND       PRES   REMARKS
AUBURN +       CLOUDY    34  27  75 SW8       29.92S WCI  27
FORT WAYNE     CLOUDY    34  27  75 SW15      29.94R WCI  24
HUNTINGTON +   CLOUDY    34  24  67 SW9       29.93S WCI  26

$$

INZ028-029-035-036-043>045-051>053-161400-
WEST CENTRAL INDIANA

CITY           SKY/WX    TMP DP  RH WIND       PRES   REMARKS
CRAWFORDSVL +  CLEAR     29  25  83 S14       29.96S WCI  18
GREENCASTLE +  CLEAR     32  27  80 SW6       30.00S WCI  26
LAFAYETTE      CLEAR     32  25  75 SW3       29.96R
TERRE HAUTE    CLEAR     32  25  75 S12       30.01S WCI  23

$$

INZ030>032-037>040-046>048-054>057-064-065-161400-
CENTRAL INDIANA

CITY           SKY/WX    TMP DP  RH WIND       PRES   REMARKS
COLUMBUS       CLEAR     28  25  86 S10       30.06S WCI  19
FRANKFORT +    CLEAR     34  27  75 SW10      29.96S WCI  26
GREENWOOD *+   CLEAR     33  28  81 S7        30.02R WCI  27
INDIANAPOLIS   PTCLDY    31  25  78 S13       30.00S WCI  21
-EAGLE CREEK   CLEAR     33  24  69 SW13      29.99R WCI  24
KOKOMO +       CLOUDY    33  25  72 SW16      29.94S WCI  23
MARION +       CLOUDY    32  25  76 SW13      29.96S WCI  22
MT COMFORT *+  CLEAR     30  28  93 S13       29.99S WCI  20
SHELBYVILLE    CLEAR     30  23  75 S14       30.02S WCI  19
ZIONSVILLE +   CLEAR     31  25  77 SW16G22   29.97S WCI  20

$$

INZ033-034-041-042-049-050-058-059-161400-
EAST CENTRAL INDIANA

CITY           SKY/WX    TMP DP  RH WIND       PRES   REMARKS
MUNCIE         CLOUDY    35  25  66 SW16G24   29.96S WCI  25
RICHMOND +     PTCLDY    30  27  86 SW12      30.02R WCI  21

$$

INZ060-061-067>069-081>083-085>088-161400-
SOUTHWEST INDIANA

CITY           SKY/WX    TMP DP  RH WIND       PRES   REMARKS
EVANSVILLE     CLEAR     33  28  81 S10       30.12R WCI  25
HUNTINGBURG +  CLEAR     31  27  85 S12       30.12R WCI  22
WASHINGTON +   CLEAR     32  25  77 S13G18    30.08R WCI  22

$$

INZ062-063-066-070>080-084-089>092-161400-
SOUTH CENTRAL AND SOUTHEAST INDIANA

CITY           SKY/WX    TMP DP  RH WIND       PRES   REMARKS
BLOOMINGTON    CLEAR     31  24  75 S13       30.04S WCI  21
MADISON *+     CLEAR     32  27  80 S10       30.11S WCI  24
NORTH VERNON + CLEAR     28  23  80 S9        30.07F WCI  20
SEYMOUR +      CLEAR     30  25  80 S9        30.08R WCI  22

$$





USA.gov is the U.S. government's official web portal to all federal, state and local government web resources and services.